Zurück zum Katalog

STARLINK-31950

AktivKommunikationVLEO
NORAD 59863·PAYLOAD·🇺🇸 United States

Gestartet May 24, 2024 von Cape Canaveral Space Force Station

Loading…

Nächste Überflüge (nächste 24 Stunden)

TLE

AktuellSource: CelesTrak SupGP

Epoche: Sep 15, 2026, 03:35 UTC

1 59863C 24098F   26258.14979167 -.00005175  00000+0 -18745-3 0  2586
2 59863  42.9999 288.1206 0001678 266.0321 342.8058 15.27581130    18

Verfolge STARLINK-31950 in Echtzeit mit AllMySat

Download on the App Store